FORMOSAT 7-4 (44350 NORAD) Tracking and Keplerian Element Data

This shows tracking and keplerian element data for the satellite.

Feedback or suggestion? Click here.




ElementValue
Catalog44350
NameFORMOSAT 7-4
Epoch Orbit368
Epoch Day201.80293592
Epoch Year2019
RAAN44.185
Inclination24.0057
Eccentricity0.0012873
Argument of Perigee115.1614
Mean Anonmoly245.0158
Mean Motion14.53245796
Decay Rate3.46E-06
L11 44350U 19036M 19201.80293592 .00000346 00000-0 31631-4 0 9997
L22 44350 24.0057 44.1850 0012873 115.1614 245.0158 14.53245796 3686

Live tracking and technical data element details for FORMOSAT 7-4 (NORAD 44350). FORMOSAT 7-4 can be tracked NOW for your location showing map with azimuth and elevation plus other details from your city location.

Track the satellite on the map from your city or location and see movement details for azimuth, elevation, latitude, longitude, range, height, and movement on the map or in text.







IsCatalogInMostPopularTable: catalog: 44350, numindb: 4
Update: records affected: 1



GetName: 44350 FORMOSAT 7-4

Hit Count: updated at: Sun, 21 Jul 2019 21:58:04 GMT